KOREASAT 5A

Last updated on Jan. 27, 2020, 4:38 a.m. UTC

1 42984U 17067A   20026.87091481 -.00000364  00000-0  00000-0 0  9990
2 42984   0.0147 103.7773 0001573 140.3724 308.1125  1.00273174  8144
UTC
Height (km)
Latitude
Longitude
Inclination
Orbital Period
UTC large
Height (km)
Speed (km/s)
/
Latitude / Longitude
Inclination (degrees)
Orbital Period (minutes)
Azimuth
Elevation
Range (km)
Doppler Factor
iOS Compass Heading
iOS Angle

Next 30 passes for location: Hong Kong

Rise time Rise Azimuth (degrees) Set time Set Azimuth (degrees) Duration Max altitude (degrees)

No matching passes for this satellites